Overview Statistics Trail Chart Weather Telemetry Raw packets
 

This is the latest recevied weather packets stored in our database for station/object KB8TTR. If no packets are shown the sender has not sent any weather packets the latest 10 day(s).

<< 90 91 92 93 94 95 96 >>
Time Temp. Humidity Pressure Rain* Wind** Luminosity Snow
1787947658 24.44° C 51% 1022.6 hPa 0 mm - 670 W/m² -
1787947357 24.44° C 49% 1022.7 hPa 0 mm - 665 W/m² -
1787947056 24.44° C 47% 1022.6 hPa 0 mm - 695 W/m² -
1787946755 24.44° C 52% 1022.7 hPa 0 mm - 706 W/m² -
1787946454 24.44° C 52% 1022.9 hPa 0 mm - 716 W/m² -
1787946150 25° C 50% 1022.8 hPa 0 mm - 729 W/m² -
1787945844 25° C 52% 1022.8 hPa 0 mm - 740 W/m² -
1787945540 24.44° C 55% 1023.1 hPa 0 mm - 748 W/m² -
1787945235 24.44° C 53% 1023 hPa 0 mm - 762 W/m² -
1787944934 25° C 54% 1023 hPa 0 mm - 768 W/m² -
1787944632 24.44° C 57% 1023 hPa 0 mm - 778 W/m² -
1787944328 24.44° C 58% 1022.8 hPa 0 mm - 786 W/m² -
1787944023 24.44° C 59% 1023.3 hPa 0 mm - 794 W/m² -
1787943718 24.44° C 55% 1023 hPa 0 mm - 801 W/m² -
1787943414 24.44° C 56% 1023.3 hPa 0 mm - 808 W/m² -
1787943108 24.44° C 56% 1023.4 hPa 0 mm - 816 W/m² -
1787942804 24.44° C 57% 1023.3 hPa 0 mm - 819 W/m² -
1787942503 24.44° C 57% 1023.2 hPa 0 mm - 822 W/m² -
1787942198 24.44° C 58% 1023.3 hPa 0 mm - 826 W/m² -
1787941895 23.89° C 57% 1023.1 hPa 0 mm - 830 W/m² -
1787941593 23.89° C 55% 1023 hPa 0 mm - 835 W/m² -
1787941288 23.89° C 57% 1023 hPa 0 mm - 838 W/m² -
1787940987 23.89° C 58% 1023.2 hPa 0 mm - 841 W/m² -
1787940686 23.89° C 55% 1023.3 hPa 0 mm - 842 W/m² -
1787940387 23.89° C 57% 1023.4 hPa 0 mm - 843 W/m² -

* Rain latest hour (hover to see other rain measurements)
** Current wind speed in m/s (hover to see current wind gust speed)